Tracking 17784 objects as of 24-July-2016
HD Live streaming from Space Station
objects crossing your sky now

BONUM 1

Track BONUM 1 now!
BONUM 1 is classified as:


NORAD ID: 25546
Int'l Code: 1998-068A
Perigee: 36,138.2 km
Apogee: 36,148.7 km
Inclination: 3.6 °
Period: 1,454.0 minutes
Semi major axis: 42514 km
RCS: 0.003 m2 (small)
Launch date: November 22, 1998
Source: Commonwealth of Independent States (former USSR) (CIS)
Launch site: AIR FORCE EASTERN TEST RANGE (AFETR)

Television broadcasting; 8 Ku-band, Siberia or Europe, selected.
Your satellite tracking list
Your tracking list is empty





NASA's NSSDC Master Catalog

Two Line Element Set (TLE):
1 25546U 98068A   16204.55486564 -.00000128  00000-0  00000+0 0  9990
2 25546   3.5871  68.9714 0001236 251.7051 108.2927  0.99037088 64717
Source of the keplerian elements: AFSPC

N2YO: 862